Weather History for Portland Troutdale, OR

Change the Weather History Date:

Monday, November 19, 2012

  Actual Average Record
Temperature  
Mean Temperature 56 °F 45 °F  
Max Temperature 63 °F 51 °F 63 °F (2012)
Min Temperature 48 °F 38 °F 22 °F (2000)
Degree Days  
Heating Degree Days 9 20  
Month to date heating degree days 269 340  
Cooling Degree Days 0 0  
Month to date cooling degree days 0 0  
Growing Degree Days 5 (Base 50)    
Moisture  
Dew Point 48 °F    
Average Humidity 77    
Maximum Humidity 93    
Minimum Humidity 60    
Precipitation  
Precipitation 1.98 in 0.26 in 3.28 in (1996)
Month to date precipitation 4.94 4.60  
Year to date precipitation 40.99 37.12  
Snow  
Snow 0.00 in - - ()
Month to date snowfall 0.0  
Since 1 July snowfall 0.0  
Since 1 September snowfall 0.0  
Snow Depth 0.00 in    
Sea Level Pressure  
Sea Level Pressure 29.64 in    
Wind  
Wind Speed 9 mph (South)    
Max Wind Speed 25 mph    
Max Gust Speed 39 mph    
Visibility 7 miles    
Events Rain    
T = Trace of Precipitation, MM = Missing Value Source: NWS Daily Summary

Daily Weather History Graph

Daily Weather History Graph

Search for Another Location

Airport:

Trip Planner

Search our weather history database for the weather conditions in past years. The results will help you decide how hot, cold, wet, or windy it might be!

Date:

Astronomy

Nov. 19, 2012 Rise Set
Actual Time 7:15 AM PST 4:34 PM PST
Civil Twilight 6:42 AM PST 5:07 PM PST
Nautical Twilight 6:06 AM PST 5:43 PM PST
Astronomical Twilight 5:31 AM PST 6:18 PM PST
Moon 12:13 PM PST (11/19) 11:16 PM PST (11/19)
Length of Visible Light 10h 24m
Length of Day
9h 19m
Waxing Crescent, 42% of the Moon is Illuminated
Nov 19
Waxing Crescent
Nov 20
First Quarter
Nov 28
Full
Dec 6
Last Quarter
Dec 13
New

Hourly Weather History & Observations

Time (PST) Temp. Dew Point Humidity Pressure Visibility Wind Dir Wind Speed Gust Speed Precip Events Conditions
12:12 AM 48.2 °F 44.6 °F 87% 29.69 in 8.0 mi East 12.7 mph - 0.02 in Rain Light Rain
12:49 AM 48.2 °F 44.6 °F 87% 29.67 in 7.0 mi East 10.4 mph - 0.08 in Rain Heavy Rain
12:53 AM 48.0 °F 45.0 °F 89% 29.68 in 5.0 mi East 9.2 mph - 0.09 in Rain Heavy Rain
1:53 AM 50.0 °F 46.9 °F 89% 29.67 in 5.0 mi East 6.9 mph - 0.11 in Rain Rain
2:53 AM 48.9 °F 46.9 °F 93% 29.67 in 7.0 mi East 9.2 mph - 0.16 in Rain Rain
3:53 AM 48.9 °F 46.0 °F 90% 29.64 in 10.0 mi East 13.8 mph - 0.07 in Rain Light Rain
4:53 AM 50.0 °F 46.9 °F 89% 29.62 in 10.0 mi East 4.6 mph - 0.01 in Rain Light Rain
5:53 AM 51.1 °F 48.0 °F 89% 29.61 in 10.0 mi ENE 4.6 mph - 0.00 in   Overcast
6:53 AM 57.9 °F 48.0 °F 70% 29.60 in 10.0 mi South 8.1 mph - 0.00 in Rain Light Rain
7:53 AM 59.0 °F 46.9 °F 64% 29.58 in 10.0 mi SSE 9.2 mph - 0.00 in   Overcast
8:53 AM 61.0 °F 46.0 °F 58% 29.57 in 10.0 mi SSE 10.4 mph 16.1 mph 0.00 in   Overcast
9:53 AM 62.1 °F 46.0 °F 56% 29.58 in 10.0 mi SSW 20.7 mph 32.2 mph 0.00 in Rain Light Rain
10:53 AM 60.1 °F 48.0 °F 64% 29.56 in 10.0 mi South 10.4 mph - 0.02 in Rain Light Rain
11:53 AM 60.1 °F 48.9 °F 67% 29.55 in 10.0 mi SSW 11.5 mph 20.7 mph 0.00 in Rain Light Rain
12:53 PM 57.9 °F 51.1 °F 78% 29.56 in 4.0 mi South 9.2 mph 18.4 mph 0.12 in Rain Rain
1:53 PM 57.0 °F 51.1 °F 81% 29.56 in 4.0 mi Variable 5.8 mph - 0.20 in Rain Rain
2:45 PM 55.4 °F 51.8 °F 88% 29.62 in 1.8 mi West 11.5 mph 18.4 mph 0.21 in Rain Heavy Rain
2:49 PM 55.4 °F 51.8 °F 88% 29.61 in 1.5 mi West 15.0 mph 24.2 mph 0.25 in Rain Heavy Rain
2:53 PM 55.0 °F 50.0 °F 83% 29.61 in 1.5 mi WSW 17.3 mph 29.9 mph 0.28 in Rain Heavy Rain
3:07 PM 55.4 °F 50.0 °F 82% 29.60 in 2.5 mi WSW 10.4 mph 25.3 mph 0.08 in Rain Rain
3:15 PM 55.4 °F 50.0 °F 82% 29.61 in 4.0 mi WSW 11.5 mph 18.4 mph 0.10 in Rain Rain
3:53 PM 55.0 °F 48.0 °F 77% 29.60 in 6.0 mi SW 16.1 mph 24.2 mph 0.23 in Rain Rain
4:53 PM 55.0 °F 50.0 °F 83% 29.64 in 5.0 mi SSW 4.6 mph - 0.19 in Rain Rain
5:53 PM 55.0 °F 51.1 °F 86% 29.64 in 6.0 mi South 10.4 mph - 0.18 in Rain Rain
6:53 PM 55.0 °F 50.0 °F 83% 29.66 in 7.0 mi SSE 9.2 mph 20.7 mph 0.07 in Rain Light Rain
7:53 PM 54.0 °F 48.9 °F 83% 29.67 in 10.0 mi SSE 12.7 mph 21.9 mph 0.01 in Rain Light Rain
8:53 PM 54.0 °F 48.9 °F 83% 29.70 in 4.0 mi SSW 6.9 mph - 0.04 in Rain Rain
9:53 PM 53.1 °F 48.9 °F 86% 29.73 in 10.0 mi SSW 9.2 mph - 0.12 in Rain Light Rain
10:53 PM 52.0 °F 48.9 °F 89% 29.73 in 10.0 mi Calm Calm - 0.07 in   Overcast
11:12 PM 53.6 °F 48.2 °F 82% 29.75 in 9.0 mi West 5.8 mph - 0.01 in Rain Light Rain
11:21 PM 51.8 °F 48.2 °F 88% 29.75 in 10.0 mi WSW 8.1 mph - 0.01 in Rain Light Rain
11:50 PM 51.8 °F 48.2 °F 88% 29.75 in 10.0 mi Calm Calm - 0.01 in   Overcast
11:53 PM 52.0 °F 48.0 °F 86% 29.75 in 10.0 mi Calm Calm - 0.01 in   Overcast